Wind_Speed
24 28 24 21 18 17 14 13 15 14 12 12 13 15 16 16 15 15 15 16 16 20 21 20 19 19 19 19 18 18 20 21 22 22 21 22 20 15 17 13 13 14 15
27 28 25 23 18 16 16 15 14 13 12 13 14 17 16 16 16 16 16 17 16 17 19 18 18 18 17 17 18 19 20 19 17 18 20 20 22 19 13 13 16 15 14
27 26 24 22 20 17 16 15 13 12 11 13 17 17 17 16 16 16 17 16 16 16 16 16 16 16 16 16 17 19 19 17 16 17 11 18 20 21 18 15 15 14 15
29 25 22 22 21 18 17 15 13 11 11 14 16 16 16 16 16 16 16 15 15 16 15 15 15 15 14 14 17 19 17 16 18 17 18 16 15 17 18 15 16 17 16
26 24 21 21 20 19 17 14 13 11 11 14 16 15 15 14 15 16 16 15 16 15 15 14 14 14 14 13 16 17 17 18 17 13 13 11 10 13 13 11 10 10 10
24 26 21 19 19 18 16 15 13 11 12 14 16 15 14 14 13 14 15 15 16 15 14 14 13 13 13 13 15 16 16 16 14 15 14 8 10 11 12 11 10 11 10
27 24 22 18 17 16 16 15 12 11 12 14 16 15 13 12 12 12 14 14 15 14 14 13 12 12 11 11 11 13 15 15 11 11 7 8 11 12 13 13 12 12 12
26 23 22 18 15 15 15 14 11 11 15 14 14 14 13 11 9 10 12 12 13 12 12 11 10 9 9 8 8 9 10 11 10 9 4 7 8 9 12 14 14 13 13
26 24 21 19 16 15 14 13 11 13 14 13 16 13 15 8 5 7 9 10 9 10 9 9 7 6 6 6 6 7 10 10 9 8 5 6 4 4 7 10 13 13 12
29 23 19 18 17 17 15 12 12 13 13 16 15 16 14 11 5 5 8 8 7 7 6 6 5 4 3 3 4 5 7 9 7 5 2 6 2 2 2 6 9 11 11
24 23 22 19 18 16 15 13 11 11 12 13 13 12 10 6 5 2 6 5 5 5 5 4 3 2 2 4 4 3 5 5 2 2 4 5 4 2 3 6 7 9 10
19 22 19 21 19 21 16 15 10 7 9 10 10 10 9 9 7 8 4 4 4 4 4 2 1 1 4 3 5 4 4 3 2 3 5 7 6 3 3 6 6 7 8
17 20 19 22 20 20 19 16 14 8 8 8 10 8 7 9 7 5 3 4 4 4 3 1 1 3 2 2 3 3 5 5 2 4 6 9 8 6 5 5 5 6 6
17 21 19 20 21 19 19 19 15 13 11 11 11 8 10 8 6 5 7 1 0 3 3 6 4 3 3 5 3 5 6 7 6 5 8 9 9 8 5 6 7 7 6
19 22 22 21 21 20 18 18 14 14 14 12 13 11 8 8 6 7 7 7 7 6 4 6 5 6 7 6 7 8 8 7 8 8 9 10 10 9 8 8 10 9 8
11 12 20 18 18 17 17 16 16 11 16 13 12 12 11 8 7 8 7 8 8 8 7 7 7 7 7 8 8 8 9 9 9 9 10 11 11 12 10 10 10 12 11
12 12 16 17 18 16 20 17 17 15 14 14 13 12 11 11 8 8 8 8 7 7 8 8 8 9 9 10 10 10 11 11 10 10 12 13 13 13 12 11 12 13 13
16 17 18 18 18 16 18 18 19 13 13 9 11 11 12 12 11 10 9 9 8 8 8 8 9 9 10 11 12 12 12 13 14 11 13 14 16 15 14 12 13 13 14
16 18 18 18 19 18 17 19 17 15 10 13 11 12 11 12 12 12 10 9 9 9 9 9 10 11 12 12 13 14 14 15 15 15 16 16 17 18 17 15 15 15 15
17 19 20 18 18 17 17 13 17 13 15 15 14 13 13 12 12 12 11 10 9 10 11 11 12 13 15 15 16 19 18 20 19 19 21 18 16 15 14 11 12 15 13
15 18 22 21 20 19 18 17 14 16 14 15 14 14 13 13 12 12 12 11 10 12 12 12 13 15 17 17 18 20 20 19 19 23 21 18 15 10 10 12 10 10 11
16 16 21 23 21 21 21 19 19 15 17 16 16 13 14 15 14 11 11 12 12 12 14 15 15 16 17 16 9 9 3 7 16 19 19 12 8 8 7 7 6 6 7
18 17 16 21 22 21 19 18 16 14 15 16 13 15 12 11 12 13 14 14 16 17 18 18 18 18 18 19 17 11 3 3 3 1 5 6 6 7 6 6 8 6 9
19 20 16 13 18 21 22 19 21 20 13 12 13 15 16 15 14 15 16 15 16 16 17 20 21 19 18 15 15 18 21 18 3 3 7 4 4 6 6 7 7 3 3
16 20 22 21 17 15 19 21 20 17 12 12 15 14 11 11 9 9 10 10 11 12 12 12 13 13 14 15 16 18 17 18 20 9 5 9 10 8 8 8 4 5 2
16 14 15 19 20 22 20 18 18 18 15 12 11 8 7 6 6 7 8 7 8 9 10 10 9 10 11 12 12 15 17 12 5 9 3 9 8 6 6 8 10 7 5
Wind_Direction
146 151 151 144 141 134 132 124 120 112 103 89 92 104 99 90 80 81 83 84 82 88 87 86 86 83 80 79 79 82 84 82 79 76 71 67 59 66 70 86 63 66 59
148 150 152 148 147 144 135 131 124 115 104 95 104 105 98 88 84 86 87 86 87 85 88 87 86 84 82 81 82 82 86 83 75 77 65 56 60 65 72 69 61 58 46
142 151 153 153 150 144 136 128 124 118 107 105 106 103 96 88 87 91 90 95 93 93 90 90 85 83 83 81 81 88 89 80 71 63 78 61 58 56 62 69 54 53 51
140 148 156 155 149 146 140 134 126 118 111 117 114 108 99 89 89 92 95 98 99 105 102 91 87 83 84 83 81 95 87 75 76 79 92 76 60 55 61 63 53 55 49
139 144 157 156 152 148 143 135 126 116 113 124 125 119 108 100 95 95 96 99 103 102 97 94 90 85 87 88 87 95 80 71 92 74 69 64 63 52 54 61 56 59 44
141 155 156 154 152 149 141 134 125 118 121 129 133 123 115 101 94 98 98 101 105 107 102 98 92 86 89 91 88 90 82 74 73 74 85 77 56 58 60 59 47 45 44
141 146 151 155 153 148 141 136 125 120 124 131 138 126 127 105 95 103 103 103 106 108 106 101 95 90 89 93 88 86 88 83 74 76 45 32 74 70 66 55 49 48 47
136 141 147 154 155 151 144 136 125 121 126 126 134 134 138 108 88 103 110 110 111 112 111 108 102 95 88 91 89 82 85 73 83 72 28 36 78 68 58 48 42 41 45
132 142 147 151 155 152 148 136 126 130 132 135 133 143 138 120 106 112 114 117 115 113 113 113 110 103 92 86 86 86 89 82 69 73 56 15 55 61 45 36 31 32 38
139 140 149 155 153 154 152 140 129 136 141 138 142 147 150 147 152 126 134 128 129 125 121 118 116 109 95 82 75 79 89 75 63 49 329 358 7 62 347 15 19 22 27
137 141 159 153 153 157 159 148 135 132 153 150 149 149 150 164 164 139 151 135 144 146 141 136 124 107 90 67 36 41 82 65 25 4 309 328 348 278 277 333 341 7 16
138 152 165 160 159 161 168 164 150 141 141 160 174 171 155 183 176 186 198 211 188 177 167 163 143 92 78 38 345 21 37 17 303 309 297 309 326 300 236 294 299 345 1
154 163 169 161 167 168 171 169 165 167 172 172 168 156 170 183 193 201 259 241 213 204 184 87 87 69 72 260 266 303 289 286 278 291 289 298 314 304 282 251 267 318 338
178 170 173 172 169 175 171 167 173 169 183 183 181 182 183 180 188 167 223 247 165 224 203 234 285 261 249 288 288 275 277 291 289 280 286 290 303 304 283 262 266 287 309
189 180 178 175 178 181 179 178 179 182 197 198 192 184 190 186 195 184 193 199 207 226 223 228 233 241 259 264 264 272 274 271 277 278 273 282 293 301 288 256 254 265 283
187 162 165 173 183 184 189 193 188 201 196 190 194 187 197 199 202 195 204 203 208 216 223 233 240 250 256 262 265 267 269 271 272 269 267 273 281 291 288 272 248 247 253
192 179 188 188 188 201 194 187 206 212 203 188 198 194 196 210 208 214 211 218 220 220 222 232 239 252 262 265 267 267 266 267 267 270 275 276 279 277 284 285 275 257 246
194 189 188 192 192 202 191 199 208 204 208 196 193 199 201 204 214 217 221 223 221 228 228 236 245 250 256 258 265 269 273 271 268 266 267 270 274 273 275 275 284 280 264
195 190 186 188 185 197 203 201 204 218 195 204 208 205 202 204 213 216 217 225 227 231 234 242 250 257 265 269 275 280 279 282 274 275 274 274 277 281 274 271 283 275 276
194 191 193 192 190 194 194 191 195 204 208 203 213 207 205 208 211 217 221 227 232 241 248 253 261 263 268 276 280 281 275 277 277 268 268 269 271 282 282 272 278 279 280
185 189 189 189 191 193 195 201 200 208 206 212 217 214 209 208 212 216 224 232 243 248 254 262 268 271 272 278 279 281 283 279 278 272 262 257 276 274 268 282 285 276 276
184 194 192 193 194 194 198 199 206 206 215 218 223 220 219 222 217 217 226 236 250 255 255 260 268 279 277 274 276 305 276 278 276 272 263 241 242 265 297 278 275 268 275
181 191 200 198 196 198 198 199 203 206 217 217 209 207 211 219 217 224 231 239 245 252 260 265 267 270 278 278 269 243 289 244 6 301 218 252 268 296 276 246 264 253 256
189 179 192 197 196 197 194 194 198 200 191 210 220 216 215 219 223 228 237 239 249 258 261 265 267 273 274 265 274 262 263 262 257 296 265 262 257 269 260 272 283 303 294
196 194 190 195 190 201 196 197 199 202 203 198 185 186 204 229 235 236 241 245 249 254 254 256 262 258 261 262 264 271 275 273 271 240 273 264 260 257 272 245 233 168 198
198 203 192 190 194 201 205 208 197 195 199 195 207 201 208 227 247 254 258 261 259 262 262 259 259 263 263 261 264 262 264 265 249 239 254 260 255 234 180 193 180 204 242
Height
795 797 803 806 810 813 815 818 819 821 823 824 824 826 827 828 829 830 831 832 833 834 835 837 838 839 839 839 840 840 840 841 841 841 842 842 842 842 842 842 842 842 842
791 798 803 807 810 813 816 818 820 822 823 825 826 827 829 830 831 832 833 834 836 837 839 840 841 841 842 842 842 842 843 844 844 844 845 845 844 845 845 845 845 845 844
792 799 804 807 810 814 816 819 822 823 824 826 828 829 831 832 833 834 835 837 839 840 842 843 844 844 844 844 844 845 845 846 846 846 847 847 847 847 847 847 847 847 846
793 799 805 809 811 815 817 820 823 825 826 827 829 831 833 835 836 837 838 839 841 843 844 845 846 846 846 847 847 847 847 848 849 849 849 849 850 850 850 850 850 849 849
795 801 806 810 813 815 818 822 823 825 827 829 831 833 835 836 838 839 839 841 842 844 845 846 847 847 848 849 849 849 849 850 851 851 851 852 853 853 852 852 852 851 851
797 801 808 812 815 817 820 823 825 827 828 830 833 834 836 837 839 840 841 843 844 845 847 847 849 850 850 851 851 852 852 852 853 854 853 853 854 854 853 852 853 852 851
797 802 808 814 817 819 821 823 826 828 830 832 834 836 838 839 840 842 843 844 845 846 848 849 851 851 852 852 853 853 854 854 855 855 855 854 854 855 854 854 854 853 851
797 803 808 815 819 821 823 825 827 829 831 834 836 837 839 840 842 844 845 846 847 848 849 851 852 853 853 854 854 855 855 856 856 857 856 856 856 856 856 855 855 854 852
799 804 809 815 819 823 825 826 828 830 832 834 837 839 841 842 844 845 846 848 849 849 850 851 853 854 855 855 856 856 856 857 857 857 856 857 857 857 857 856 856 855 853
800 805 810 815 818 823 827 828 830 831 833 835 837 839 842 843 845 846 847 848 849 850 852 852 854 855 855 855 856 857 857 857 858 858 858 858 857 858 857 857 856 856 854
802 806 812 814 819 823 827 830 832 833 834 837 839 841 843 845 845 846 848 849 850 851 852 853 854 855 855 856 856 857 857 857 858 858 857 857 857 857 857 857 857 856 855
804 807 813 814 819 822 826 829 833 835 836 838 840 841 843 845 847 847 848 849 850 851 852 853 854 855 855 856 857 857 857 857 858 858 857 857 857 857 857 857 857 856 855
805 809 813 814 818 821 824 828 832 835 837 838 840 841 842 845 847 848 849 850 850 851 852 853 854 855 855 856 857 857 857 857 858 858 857 857 856 856 855 855 855 855 855
805 808 812 814 817 820 824 827 830 834 836 838 840 842 842 844 845 847 849 850 850 851 851 852 853 853 855 856 856 857 857 857 857 857 856 856 855 855 854 854 854 854 854
804 806 809 813 816 818 822 826 828 831 834 835 838 841 842 843 845 847 847 849 851 852 852 853 854 854 854 854 855 855 855 855 855 855 855 854 854 853 853 853 853 853 853
802 805 808 811 816 818 821 824 826 829 830 834 836 838 841 842 844 845 847 848 849 850 851 852 853 853 853 854 853 853 853 853 853 853 853 852 852 851 851 851 851 852 851
801 804 806 810 814 817 819 823 825 827 829 831 833 835 837 841 842 844 845 846 847 848 849 850 851 852 852 852 852 852 852 851 851 851 850 849 849 848 848 848 848 848 849
799 802 806 808 812 816 817 821 823 824 826 829 831 833 834 837 840 842 843 844 846 847 848 849 850 850 850 850 850 850 849 849 848 848 848 847 846 845 845 845 846 846 846
797 800 804 807 810 813 815 818 821 823 824 826 829 830 832 834 837 839 841 843 844 846 846 847 847 848 849 848 848 847 847 846 845 845 844 844 843 842 842 842 843 843 843
794 797 801 804 807 810 813 816 819 821 823 824 827 828 830 832 834 836 839 840 841 843 844 845 845 846 845 846 846 845 844 843 842 841 841 840 840 840 840 840 840 840 840
792 795 798 801 804 807 810 813 817 818 822 823 825 827 828 830 831 833 836 838 839 840 841 842 842 843 842 842 842 841 840 840 838 837 836 837 837 837 837 837 837 838 839
788 791 795 797 800 803 807 810 814 817 819 821 824 824 827 827 829 830 832 835 837 837 838 839 839 839 839 840 840 839 838 836 834 832 832 834 835 835 835 835 835 836 837
784 787 792 795 797 800 805 808 812 814 816 818 820 822 825 827 827 827 828 831 832 834 834 835 835 836 835 836 836 838 837 835 832 831 832 832 834 834 834 834 834 833 833
782 783 788 791 794 797 800 804 806 808 811 814 817 819 821 823 823 823 825 826 828 830 830 831 831 831 832 832 832 832 833 833 833 832 830 831 831 831 832 831 832 832 831
780 782 782 786 791 795 797 799 802 805 810 811 814 816 818 819 820 820 822 823 825 826 827 827 827 828 828 829 830 830 830 830 830 830 829 829 829 828 828 830 831 831 831
778 782 783 784 787 791 795 799 799 802 806 808 811 813 815 817 818 819 820 821 822 824 825 825 825 825 825 825 826 827 827 827 826 827 828 828 828 826 825 827 828 827 827